Tehachapi, CA

3:14 AM PDT on August 17, 2017 (GMT -0700)
Tehachapi Municipal

Weather History for KTSP - December, 2010

Change the Weather History Date:

Saturday, December 4, 2010

  Actual Average Record
Temperature  
Mean Temperature 52 °F -  
Max Temperature 59 °F 55 °F 64 °F (2016)
Min Temperature 44 °F 32 °F 14 °F (2011)
Degree Days  
Heating Degree Days 14    
Growing Degree Days 2 (Base 50)    
Moisture  
Dew Point 14 °F    
Average Humidity 24    
Maximum Humidity 43    
Minimum Humidity 11    
Precipitation  
Precipitation 0.00 in - - ()
Sea Level Pressure  
Sea Level Pressure 30.08 in    
Wind  
Wind Speed 9 mph ()    
Max Wind Speed 21 mph    
Max Gust Speed 29 mph    
Visibility 10.0 miles    
Events      
Averages and records for this station are not official NWS values.
T = Trace of Precipitation, MM = Missing Value Source: Averaged Metar Reports

Daily Weather History Graph

Daily Weather History Graph

Search for Another Location

Airport or City:

Trip Planner

Search our weather history database for the weather conditions in past years. The results will help you decide how hot, cold, wet, or windy it might be!

Date:

Astronomy

Dec. 04, 2010 Rise Set
Actual Time 6:46 AM PST 4:41 PM PST
Civil Twilight 6:18 AM PST 5:09 PM PST
Nautical Twilight 5:47 AM PST 5:40 PM PST
Astronomical Twilight 5:16 AM PST 6:11 PM PST
Moon 5:47 AM PST (12/4) 3:50 PM PST (12/4)
Length of Visible Light 10h 50m
Length of Day
9h 55m
Waning Crescent, 1% of the Moon is Illuminated
Dec 4
Waning Crescent
Dec 5
New
Dec 13
First Quarter
Dec 21
Full
Dec 27
Last Quarter

Hourly Weather History & Observations

Time (PST) Temp. Windchill Dew Point Humidity Pressure Visibility Wind Dir Wind Speed Gust Speed Precip Events Conditions
12:15 AM 53.6 °F - 8.6 °F 16% 30.02 in 10.0 mi ENE 20.7 mph 28.8 mph N/A   Mostly Cloudy
12:35 AM 53.6 °F - 10.4 °F 18% 30.02 in 10.0 mi ENE 18.4 mph 24.2 mph N/A   Mostly Cloudy
12:55 AM 53.6 °F - 10.4 °F 18% 30.02 in 10.0 mi ENE 17.3 mph 25.3 mph N/A   Overcast
1:15 AM 53.6 °F - 10.4 °F 18% 30.03 in 10.0 mi East 15.0 mph - N/A   Overcast
1:35 AM 53.6 °F - 14.0 °F 21% 30.04 in 10.0 mi East 16.1 mph 20.7 mph N/A   Overcast
1:55 AM 53.6 °F - 14.0 °F 21% 30.03 in 10.0 mi ENE 12.7 mph 20.7 mph N/A   Overcast
2:35 AM 53.6 °F - 12.2 °F 19% 30.03 in 10.0 mi ESE 5.8 mph - N/A   Overcast
2:55 AM 53.6 °F - 10.4 °F 18% 30.04 in 10.0 mi ENE 11.5 mph 16.1 mph N/A   Overcast
3:15 AM 53.6 °F - 12.2 °F 19% 30.04 in 10.0 mi ESE 6.9 mph - N/A   Overcast
3:35 AM 50.0 °F - 14.0 °F 24% 30.03 in 10.0 mi East 12.7 mph 17.3 mph N/A   Overcast
3:55 AM 50.0 °F - 14.0 °F 24% 30.04 in 10.0 mi East 11.5 mph - N/A   Overcast
4:15 AM 50.0 °F - 14.0 °F 24% 30.04 in 10.0 mi East 5.8 mph - N/A   Overcast
4:35 AM 50.0 °F - 15.8 °F 26% 30.04 in 10.0 mi SSE 8.1 mph - N/A   Overcast
4:55 AM 48.2 °F - 15.8 °F 27% 30.06 in 10.0 mi Calm Calm - N/A   Overcast
5:15 AM 50.0 °F - 10.4 °F 20% 30.05 in 10.0 mi East 9.2 mph - N/A   Overcast
5:35 AM 50.0 °F - 14.0 °F 24% 30.07 in 10.0 mi Calm Calm - N/A   Overcast
5:55 AM 48.2 °F - 15.8 °F 27% 30.07 in 10.0 mi Calm Calm - N/A   Overcast
6:15 AM 46.4 °F - 21.2 °F 37% 30.09 in 10.0 mi Calm Calm - N/A   Overcast
6:35 AM 46.4 °F - 19.4 °F 34% 30.10 in 10.0 mi Calm Calm - N/A   Mostly Cloudy
6:55 AM 44.6 °F 41.4 °F 23.0 °F 43% 30.10 in 10.0 mi ESE 5.8 mph - N/A   Overcast
7:15 AM 46.4 °F - 19.4 °F 34% 30.10 in 10.0 mi Calm Calm - N/A   Overcast
7:35 AM 46.4 °F - 21.2 °F 37% 30.09 in 10.0 mi Calm Calm - N/A   Overcast
7:55 AM 48.2 °F - 19.4 °F 32% 30.10 in 10.0 mi Calm Calm - N/A   Mostly Cloudy
8:15 AM 46.4 °F - 23.0 °F 40% 30.11 in 10.0 mi Calm Calm - N/A   Mostly Cloudy
8:35 AM 51.8 °F - 8.6 °F 18% 30.11 in 10.0 mi East 12.7 mph - N/A   Mostly Cloudy
8:55 AM 50.0 °F - 15.8 °F 26% 30.12 in 10.0 mi ESE 13.8 mph - N/A   Mostly Cloudy
9:15 AM 50.0 °F - 17.6 °F 28% 30.12 in 10.0 mi ESE 9.2 mph - N/A   Overcast
9:35 AM 50.0 °F - 15.8 °F 26% 30.13 in 10.0 mi Calm Calm - N/A   Overcast
10:15 AM 51.8 °F - 6.8 °F 16% 30.11 in 10.0 mi East 6.9 mph - N/A   Overcast
10:35 AM 53.6 °F - 1.4 °F 12% 30.12 in 10.0 mi East 6.9 mph - N/A   Overcast
10:55 AM 53.6 °F - 1.4 °F 12% 30.11 in 10.0 mi ESE 8.1 mph - N/A   Overcast
11:15 AM 53.6 °F - 1.4 °F 12% 30.10 in 10.0 mi East 11.5 mph - N/A   Overcast
11:35 AM 55.4 °F - 3.2 °F 12% 30.09 in 10.0 mi NE 8.1 mph - N/A   Overcast
11:55 AM 55.4 °F - 1.4 °F 11% 30.08 in 10.0 mi East 8.1 mph 18.4 mph N/A   Mostly Cloudy
12:15 PM 57.2 °F - 6.8 °F 13% 30.07 in 10.0 mi East 6.9 mph - N/A   Mostly Cloudy
12:35 PM 57.2 °F - 6.8 °F 13% 30.07 in 10.0 mi ENE 3.5 mph - N/A   Mostly Cloudy
12:55 PM 57.2 °F - 6.8 °F 13% 30.05 in 10.0 mi ENE 12.7 mph - N/A   Mostly Cloudy
1:15 PM 57.2 °F - 6.8 °F 13% 30.06 in 10.0 mi East 11.5 mph - N/A   Mostly Cloudy
1:35 PM 55.4 °F - 8.6 °F 15% 30.05 in 10.0 mi East 9.2 mph - N/A   Overcast
1:55 PM 55.4 °F - 10.4 °F 17% 30.05 in 10.0 mi East 10.4 mph - N/A   Overcast
2:15 PM 55.4 °F - 14.0 °F 20% 30.04 in 10.0 mi East 9.2 mph - N/A   Overcast
2:35 PM 57.2 °F - 12.2 °F 17% 30.05 in 10.0 mi East 10.4 mph - N/A   Overcast
2:55 PM 59.0 °F - 14.0 °F 17% 30.05 in 10.0 mi East 10.4 mph - N/A   Mostly Cloudy
3:15 PM 57.2 °F - 14.0 °F 18% 30.06 in 10.0 mi East 8.1 mph - N/A   Mostly Cloudy
3:35 PM 55.4 °F - 15.8 °F 21% 30.06 in 10.0 mi East 10.4 mph - N/A   Scattered Clouds
3:55 PM 55.4 °F - 17.6 °F 23% 30.06 in 10.0 mi East 11.5 mph - N/A   Clear
4:15 PM 51.8 °F - 19.4 °F 28% 30.06 in 10.0 mi ENE 8.1 mph - N/A   Clear
4:35 PM 50.0 °F - 17.6 °F 28% 30.07 in 10.0 mi East 9.2 mph - N/A   Clear
4:55 PM 50.0 °F - 19.4 °F 30% 30.07 in 10.0 mi East 9.2 mph - N/A   Partly Cloudy
5:15 PM 50.0 °F - 17.6 °F 28% 30.08 in 10.0 mi ESE 8.1 mph - N/A   Clear
5:35 PM 48.2 °F - 19.4 °F 32% 30.08 in 10.0 mi East 6.9 mph - N/A   Scattered Clouds
5:55 PM 48.2 °F - 19.4 °F 32% 30.09 in 10.0 mi SSE 4.6 mph - N/A   Mostly Cloudy
6:35 PM 48.2 °F - 19.4 °F 32% 30.10 in 10.0 mi Calm Calm - N/A   Scattered Clouds
6:55 PM 46.4 °F - 19.4 °F 34% 30.11 in 10.0 mi Calm Calm - N/A   Mostly Cloudy
7:15 PM 48.2 °F - 15.8 °F 27% 30.10 in 10.0 mi SE 15.0 mph 18.4 mph N/A   Scattered Clouds
7:55 PM 50.0 °F - 15.8 °F 26% 30.10 in 10.0 mi East 9.2 mph - N/A   Clear
8:15 PM 50.0 °F - 19.4 °F 30% 30.10 in 10.0 mi East 11.5 mph - N/A   Clear
8:35 PM 50.0 °F - 19.4 °F 30% 30.11 in 10.0 mi East 9.2 mph - N/A   Clear
8:55 PM 48.2 °F - 19.4 °F 32% 30.12 in 10.0 mi South 5.8 mph - N/A   Clear
9:15 PM 48.2 °F - 19.4 °F 32% 30.13 in 10.0 mi SSE 5.8 mph - N/A   Clear
9:35 PM 46.4 °F 42.9 °F 19.4 °F 34% 30.12 in 10.0 mi ESE 6.9 mph - N/A   Clear
9:55 PM 46.4 °F 42.9 °F 21.2 °F 37% 30.11 in 10.0 mi ESE 6.9 mph - N/A   Clear
10:15 PM 46.4 °F - 19.4 °F 34% 30.12 in 10.0 mi Calm Calm - N/A   Clear
10:35 PM 46.4 °F 43.5 °F 17.6 °F 32% 30.12 in 10.0 mi NE 5.8 mph - N/A   Partly Cloudy
10:55 PM 51.8 °F - 14.0 °F 22% 30.12 in 10.0 mi ENE 3.5 mph - N/A   Partly Cloudy
11:15 PM 50.0 °F - 12.2 °F 22% 30.12 in 10.0 mi Calm Calm - N/A   Clear
11:35 PM 50.0 °F - 14.0 °F 24% 30.12 in 10.0 mi Calm Calm - N/A   Clear
11:55 PM 50.0 °F - 12.2 °F 22% 30.11 in 10.0 mi ENE 5.8 mph - N/A   Clear